Location: Shepherdstown, WV
(39.4326°N, 77.8042°W)
Time: 10:23:51
(UTC-04:00)

Tiangong - Pass Details

Date: 01 July 2021
Orbit: 374 x 386 km, 41.5° (Epoch: 25 July)

Event Time Altitude Azimuth Distance (km) Brightness Sun altitude
Exits shadow 03:30:14 21° 116° (ESE) 916 3.0 -20.0°
Drops below altitude 10° 03:31:24 10° 114° (ESE) 1,381 4.0 -19.9°
Sets 03:33:28 0° 112° (ESE) 2,233 5.1 -19.6°
